| time (UTC) | temp C | wind direction | speed KPH | gust KPH | rain 1hr cm | rain 24hr cm | rain mn cm | humidity % | barometer mb |
| 20260507160034 | 19 | 332 | 4.8 | 14.5 | 0.00 | 0.03 | 0.00 | 86 | 1015.7 |
| 20260507155511 | 19 | 15 | 3.2 | 12.9 | 0.00 | 0.03 | 0.00 | 86 | 1015.8 |
| 20260507155010 | 18 | 153 | 3.2 | 12.9 | 0.00 | 0.03 | 0.00 | 86 | 1015.9 |
| 20260507154518 | 18 | 15 | 3.2 | 12.9 | 0.00 | 0.03 | 0.00 | 86 | 1016.0 |
| 20260507154010 | 19 | 51 | 3.2 | 12.9 | 0.00 | 0.03 | 0.00 | 86 | 1016.0 |
| 20260507153507 | 19 | 9 | 3.2 | 12.9 | 0.00 | 0.03 | 0.00 | 87 | 1015.8 |
| 20260507153026 | 18 | 51 | 4.8 | 12.9 | 0.00 | 0.03 | 0.00 | 87 | 1015.8 |
| 20260507152511 | 18 | 328 | 3.2 | 11.3 | 0.00 | 0.03 | 0.00 | 87 | 1015.9 |
| 20260507152008 | 18 | 67 | 4.8 | 11.3 | 0.00 | 0.03 | 0.00 | 87 | 1016.0 |
| 20260507151538 | 18 | 137 | 1.6 | 12.9 | 0.00 | 0.03 | 0.00 | 87 | 1016.1 |
| 20260507151009 | 18 | 23 | 3.2 | 12.9 | 0.00 | 0.03 | 0.00 | 87 | 1016.2 |
| 20260507150510 | 18 | 76 | 1.6 | 14.5 | 0.00 | 0.03 | 0.00 | 88 | 1016.2 |
| 20260507150021 | 17 | 51 | 3.2 | 20.9 | 0.00 | 0.03 | 0.00 | 88 | 1016.2 |
| 20260507145507 | 17 | 9 | 3.2 | 20.9 | 0.00 | 0.03 | 0.00 | 88 | 1016.2 |
| 20260507145009 | 17 | 9 | 6.4 | 20.9 | 0.00 | 0.03 | 0.00 | 88 | 1016.3 |
| 20260507144524 | 17 | 15 | 3.2 | 19.3 | 0.00 | 0.03 | 0.00 | 88 | 1016.1 |
| 20260507144011 | 17 | 19 | 4.8 | 19.3 | 0.00 | 0.03 | 0.00 | 88 | 1016.2 |
| 20260507143508 | 17 | 80 | 4.8 | 14.5 | 0.00 | 0.03 | 0.00 | 88 | 1016.1 |
| 20260507143014 | 17 | 45 | 6.4 | 14.5 | 0.00 | 0.03 | 0.00 | 88 | 1016.0 |
| 20260507142507 | 17 | 13 | 4.8 | 12.9 | 0.00 | 0.03 | 0.00 | 89 | 1015.8 |
| 20260507142010 | 17 | 56 | 3.2 | 12.9 | 0.00 | 0.03 | 0.00 | 89 | 1015.6 |
| 20260507141526 | 17 | 34 | 3.2 | 12.9 | 0.00 | 0.03 | 0.00 | 89 | 1015.6 |
| 20260507141007 | 17 | 41 | 1.6 | 12.9 | 0.00 | 0.03 | 0.00 | 89 | 1015.7 |
| 20260507140503 | 17 | 15 | 3.2 | 14.5 | 0.00 | 0.03 | 0.00 | 89 | 1015.4 |
| 20260507140017 | 17 | 44 | 4.8 | 14.5 | 0.00 | 0.03 | 0.00 | 88 | 1015.2 |
| 20260507135506 | 17 | 54 | 4.8 | 16.1 | 0.00 | 0.03 | 0.00 | 88 | 1015.1 |
| 20260507135011 | 18 | 225 | 6.4 | 17.7 | 0.00 | 0.03 | 0.00 | 89 | 1015.0 |
| 20260507134529 | 17 | 78 | 3.2 | 17.7 | 0.00 | 0.03 | 0.00 | 89 | 1014.9 |
| 20260507134012 | 18 | 32 | 4.8 | 17.7 | 0.00 | 0.03 | 0.00 | 89 | 1015.1 |
| 20260507133512 | 18 | 78 | 6.4 | 17.7 | 0.00 | 0.03 | 0.00 | 89 | 1015.1 |
| 20260507133008 | 18 | 17 | 4.8 | 17.7 | 0.00 | 0.03 | 0.00 | 89 | 1015.2 |
| 20260507132507 | 18 | 98 | 3.2 | 16.1 | 0.00 | 0.03 | 0.00 | 89 | 1015.6 |
| 20260507132010 | 18 | 46 | 4.8 | 16.1 | 0.00 | 0.03 | 0.00 | 89 | 1015.9 |
| 20260507131519 | 18 | 105 | 4.8 | 16.1 | 0.00 | 0.03 | 0.00 | 89 | 1016.0 |
| 20260507131010 | 18 | 17 | 4.8 | 14.5 | 0.00 | 0.03 | 0.00 | 89 | 1016.0 |
| 20260507130511 | 18 | 70 | 4.8 | 14.5 | 0.00 | 0.03 | 0.00 | 89 | 1015.9 |
| 20260507130026 | 18 | 17 | 3.2 | 12.9 | 0.00 | 0.03 | 0.00 | 89 | 1015.9 |
| 20260507125516 | 18 | 116 | 3.2 | 12.9 | 0.00 | 0.03 | 0.00 | 89 | 1015.9 |
| 20260507125003 | 18 | 325 | 3.2 | 17.7 | 0.00 | 0.03 | 0.00 | 89 | 1015.8 |
| 20260507124509 | 18 | 33 | 4.8 | 17.7 | 0.00 | 0.03 | 0.00 | 89 | 1015.8 |
| 20260507124008 | 18 | 21 | 4.8 | 14.5 | 0.00 | 0.03 | 0.00 | 89 | 1015.7 |
| 20260507123509 | 18 | 83 | 3.2 | 14.5 | 0.00 | 0.03 | 0.00 | 89 | 1015.8 |
| 20260507123021 | 18 | 18 | 1.6 | 12.9 | 0.00 | 0.03 | 0.00 | 89 | 1015.5 |
| 20260507122509 | 18 | 22 | 3.2 | 12.9 | 0.00 | 0.03 | 0.00 | 89 | 1015.3 |
| 20260507122012 | 18 | 338 | 3.2 | 8.0 | 0.00 | 0.03 | 0.00 | 89 | 1015.1 |
| 20260507121526 | 18 | 302 | 1.6 | 12.9 | 0.00 | 0.03 | 0.00 | 89 | 1015.1 |
| 20260507121004 | 18 | 51 | 3.2 | 12.9 | 0.00 | 0.03 | 0.00 | 89 | 1015.0 |
| 20260507120511 | 18 | 36 | 3.2 | 14.5 | 0.00 | 0.03 | 0.00 | 89 | 1014.8 |
| 20260507120015 | 18 | 32 | 3.2 | 14.5 | 0.00 | 0.03 | 0.00 | 89 | 1014.7 |
| 20260507115509 | 18 | 44 | 3.2 | 12.9 | 0.00 | 0.03 | 0.00 | 89 | 1014.6 |
| 20260507115007 | 18 | 58 | 3.2 | 16.1 | 0.00 | 0.03 | 0.00 | 89 | 1014.8 |
| 20260507114529 | 18 | 159 | 3.2 | 16.1 | 0.00 | 0.03 | 0.00 | 89 | 1014.6 |
| 20260507114007 | 18 | 265 | 3.2 | 16.1 | 0.00 | 0.03 | 0.00 | 89 | 1014.3 |
| 20260507113512 | 18 | 347 | 4.8 | 16.1 | 0.00 | 0.03 | 0.00 | 89 | 1013.7 |
| 20260507113028 | 18 | 24 | 3.2 | 14.5 | 0.00 | 0.03 | 0.00 | 89 | 1013.8 |
| 20260507112510 | 18 | 41 | 3.2 | 14.5 | 0.00 | 0.03 | 0.00 | 88 | 1013.9 |
| 20260507112007 | 18 | 93 | 1.6 | 11.3 | 0.00 | 0.03 | 0.00 | 88 | 1013.9 |
| 20260507111530 | 18 | 346 | 3.2 | 11.3 | 0.00 | 0.03 | 0.00 | 88 | 1013.9 |
| 20260507111010 | 18 | 109 | 1.6 | 9.7 | 0.00 | 0.03 | 0.00 | 88 | 1013.8 |
| 20260507110511 | 18 | 79 | 1.6 | 8.0 | 0.00 | 0.03 | 0.00 | 88 | 1013.7 |
| 20260507110030 | 18 | 342 | 1.6 | 9.7 | 0.00 | 0.03 | 0.00 | 88 | 1013.9 |
| 20260507105508 | 18 | 9 | 1.6 | 9.7 | 0.00 | 0.03 | 0.00 | 88 | 1013.8 |
| 20260507105010 | 18 | 46 | 3.2 | 8.0 | 0.00 | 0.03 | 0.00 | 88 | 1013.8 |
| 20260507104510 | 18 | 41 | 1.6 | 8.0 | 0.00 | 0.03 | 0.00 | 88 | 1013.8 |
| 20260507104007 | 18 | 34 | 1.6 | 4.8 | 0.00 | 0.03 | 0.00 | 88 | 1013.8 |
| 20260507103507 | 18 | 93 | 1.6 | 6.4 | 0.00 | 0.03 | 0.00 | 88 | 1013.5 |
| 20260507103023 | 18 | 93 | 1.6 | 6.4 | 0.00 | 0.03 | 0.00 | 88 | 1013.7 |
| 20260507102507 | 18 | 56 | 1.6 | 6.4 | 0.00 | 0.03 | 0.00 | 88 | 1013.6 |
| 20260507102010 | 18 | 30 | 0.0 | 11.3 | 0.00 | 0.03 | 0.00 | 88 | 1013.7 |
| 20260507101524 | 18 | 338 | 3.2 | 11.3 | 0.00 | 0.03 | 0.00 | 89 | 1013.5 |
| 20260507101014 | 18 | 349 | 3.2 | 9.7 | 0.00 | 0.03 | 0.00 | 89 | 1013.6 |
| 20260507100503 | 18 | 16 | 1.6 | 6.4 | 0.00 | 0.03 | 0.00 | 89 | 1013.4 |
| 20260507100016 | 18 | 309 | 0.0 | 6.4 | 0.00 | 0.03 | 0.00 | 89 | 1013.4 |
| 20260507095509 | 18 | 107 | 1.6 | 6.4 | 0.00 | 0.03 | 0.00 | 89 | 1013.3 |
| 20260507095010 | 18 | 51 | 1.6 | 6.4 | 0.00 | 0.03 | 0.00 | 89 | 1013.4 |
| 20260507094522 | 18 | 316 | 0.0 | 9.7 | 0.00 | 0.03 | 0.00 | 89 | 1013.3 |
| 20260507094007 | 18 | 19 | 1.6 | 12.9 | 0.00 | 0.03 | 0.00 | 89 | 1013.2 |
| 20260507093509 | 18 | 26 | 4.8 | 12.9 | 0.00 | 0.03 | 0.00 | 89 | 1013.1 |
| 20260507093028 | 18 | 325 | 1.6 | 6.4 | 0.00 | 0.03 | 0.00 | 89 | 1013.1 |
| 20260507092504 | 18 | 137 | 0.0 | 12.9 | 0.00 | 0.03 | 0.00 | 88 | 1013.0 |
| 20260507092007 | 18 | 83 | 3.2 | 12.9 | 0.00 | 0.03 | 0.00 | 89 | 1012.5 |
| 20260507091520 | 18 | 85 | 4.8 | 11.3 | 0.00 | 0.03 | 0.00 | 88 | 1012.7 |
| 20260507091009 | 18 | 213 | 1.6 | 6.4 | 0.00 | 0.03 | 0.00 | 88 | 1012.8 |
| 20260507090511 | 18 | 317 | 3.2 | 14.5 | 0.00 | 0.03 | 0.00 | 88 | 1012.9 |
| 20260507090035 | 18 | 61 | 3.2 | 14.5 | 0.00 | 0.03 | 0.00 | 88 | 1012.8 |
| 20260507085508 | 18 | 334 | 1.6 | 12.9 | 0.00 | 0.03 | 0.00 | 88 | 1012.9 |
| 20260507085009 | 18 | 80 | 1.6 | 12.9 | 0.00 | 0.03 | 0.00 | 88 | 1013.0 |
| 20260507084524 | 18 | 9 | 1.6 | 9.7 | 0.00 | 0.03 | 0.00 | 88 | 1013.0 |
| 20260507084009 | 18 | 42 | 3.2 | 9.7 | 0.00 | 0.03 | 0.00 | 88 | 1013.1 |
| 20260507083507 | 18 | 80 | 3.2 | 9.7 | 0.00 | 0.03 | 0.00 | 88 | 1013.2 |
| 20260507083020 | 18 | 93 | 1.6 | 8.0 | 0.00 | 0.03 | 0.00 | 88 | 1013.2 |
| 20260507082507 | 18 | 13 | 1.6 | 17.7 | 0.00 | 0.03 | 0.00 | 88 | 1013.3 |
| 20260507082018 | 18 | 51 | 3.2 | 17.7 | 0.00 | 0.03 | 0.00 | 88 | 1013.2 |
| 20260507081528 | 18 | 40 | 3.2 | 12.9 | 0.00 | 0.03 | 0.00 | 88 | 1013.1 |
| 20260507081010 | 18 | 26 | 1.6 | 16.1 | 0.00 | 0.03 | 0.00 | 87 | 1013.0 |
| 20260507080506 | 18 | 111 | 6.4 | 16.1 | 0.00 | 0.03 | 0.00 | 87 | 1013.1 |
| 20260507080017 | 18 | 17 | 3.2 | 12.9 | 0.00 | 0.03 | 0.00 | 87 | 1013.0 |
| 20260507075508 | 18 | 314 | 3.2 | 12.9 | 0.00 | 0.03 | 0.00 | 87 | 1013.1 |
| 20260507075006 | 18 | 325 | 4.8 | 12.9 | 0.00 | 0.03 | 0.00 | 87 | 1013.1 |
| 20260507074536 | 18 | 9 | 1.6 | 8.0 | 0.00 | 0.03 | 0.00 | 88 | 1013.1 |
| 20260507074008 | 18 | 9 | 1.6 | 9.7 | 0.00 | 0.03 | 0.00 | 87 | 1013.0 |
| 20260507073510 | 18 | 316 | 3.2 | 9.7 | 0.00 | 0.03 | 0.00 | 87 | 1013.2 |
| 20260507073026 | 18 | 80 | 3.2 | 12.9 | 0.00 | 0.03 | 0.00 | 87 | 1013.2 |
| 20260507072507 | 18 | 90 | 3.2 | 12.9 | 0.00 | 0.03 | 0.00 | 87 | 1013.3 |
| 20260507072011 | 18 | 51 | 1.6 | 12.9 | 0.00 | 0.03 | 0.00 | 87 | 1013.3 |
| 20260507071518 | 18 | 313 | 3.2 | 12.9 | 0.00 | 0.03 | 0.00 | 87 | 1013.4 |
| 20260507071009 | 18 | 34 | 1.6 | 16.1 | 0.00 | 0.03 | 0.00 | 87 | 1013.2 |
| 20260507070511 | 18 | 26 | 1.6 | 16.1 | 0.00 | 0.03 | 0.00 | 87 | 1013.4 |
| 20260507070012 | 18 | 22 | 3.2 | 16.1 | 0.00 | 0.03 | 0.00 | 87 | 1013.7 |
| 20260507065503 | 18 | 269 | 4.8 | 16.1 | 0.00 | 0.03 | 0.00 | 87 | 1013.6 |
| 20260507065003 | 19 | 295 | 3.2 | 14.5 | 0.00 | 0.03 | 0.00 | 87 | 1013.5 |
| 20260507064513 | 19 | 28 | 3.2 | 14.5 | 0.00 | 0.03 | 0.00 | 87 | 1013.5 |
| 20260507064007 | 19 | 67 | 3.2 | 14.5 | 0.00 | 0.03 | 0.00 | 87 | 1013.5 |
| 20260507063508 | 19 | 338 | 4.8 | 14.5 | 0.00 | 0.03 | 0.00 | 87 | 1013.5 |
| 20260507063025 | 19 | 317 | 3.2 | 14.5 | 0.00 | 0.03 | 0.00 | 87 | 1013.5 |
| 20260507062510 | 19 | 27 | 3.2 | 19.3 | 0.00 | 0.03 | 0.00 | 87 | 1013.3 |
| 20260507062010 | 19 | 341 | 3.2 | 19.3 | 0.00 | 0.03 | 0.00 | 87 | 1013.2 |
| 20260507061507 | 19 | 54 | 6.4 | 19.3 | 0.00 | 0.03 | 0.00 | 87 | 1013.5 |
| 20260507061006 | 19 | 319 | 4.8 | 16.1 | 0.00 | 0.03 | 0.00 | 87 | 1013.5 |
| 20260507060506 | 19 | 34 | 3.2 | 16.1 | 0.00 | 0.03 | 0.00 | 87 | 1013.2 |
| 20260507060017 | 19 | 9 | 1.6 | 16.1 | 0.00 | 0.03 | 0.00 | 87 | 1013.1 |
| 20260507055506 | 19 | 13 | 4.8 | 16.1 | 0.00 | 0.03 | 0.00 | 87 | 1013.0 |
| 20260507055011 | 19 | 9 | 3.2 | 14.5 | 0.00 | 0.03 | 0.00 | 87 | 1013.0 |
| 20260507054522 | 19 | 34 | 3.2 | 19.3 | 0.00 | 0.03 | 0.00 | 87 | 1013.1 |
| 20260507054013 | 19 | 349 | 6.4 | 19.3 | 0.00 | 0.03 | 0.00 | 87 | 1013.2 |
| 20260507053504 | 19 | 16 | 6.4 | 16.1 | 0.00 | 0.03 | 0.00 | 87 | 1013.2 |
| 20260507053010 | 19 | 16 | 4.8 | 16.1 | 0.00 | 0.03 | 0.00 | 87 | 1013.1 |
| 20260507052503 | 19 | 93 | 3.2 | 14.5 | 0.00 | 0.03 | 0.00 | 87 | 1012.9 |
| 20260507052008 | 19 | 30 | 3.2 | 16.1 | 0.00 | 0.03 | 0.00 | 87 | 1012.8 |
| 20260507051519 | 20 | 344 | 4.8 | 16.1 | 0.00 | 0.03 | 0.00 | 87 | 1012.8 |
| 20260507051007 | 20 | 29 | 6.4 | 16.1 | 0.00 | 0.03 | 0.00 | 87 | 1012.7 |
| 20260507050514 | 20 | 26 | 4.8 | 19.3 | 0.00 | 0.03 | 0.00 | 87 | 1012.8 |
| 20260507050025 | 20 | 350 | 4.8 | 19.3 | 0.00 | 0.03 | 0.00 | 87 | 1012.9 |
| 20260507045503 | 20 | 19 | 3.2 | 14.5 | 0.00 | 0.03 | 0.03 | 87 | 1012.8 |
| 20260507045003 | 20 | 321 | 4.8 | 14.5 | 0.00 | 0.03 | 0.03 | 87 | 1012.9 |
| 20260507044510 | 20 | 18 | 4.8 | 12.9 | 0.00 | 0.03 | 0.03 | 87 | 1012.8 |
| 20260507044008 | 20 | 316 | 1.6 | 14.5 | 0.00 | 0.03 | 0.03 | 86 | 1012.7 |
| 20260507043507 | 20 | 93 | 4.8 | 16.1 | 0.00 | 0.03 | 0.03 | 86 | 1012.7 |
| 20260507043020 | 20 | 325 | 1.6 | 16.1 | 0.00 | 0.03 | 0.03 | 86 | 1012.7 |
| 20260507042508 | 20 | 342 | 6.4 | 19.3 | 0.00 | 0.03 | 0.03 | 86 | 1012.6 |
| 20260507042010 | 20 | 309 | 6.4 | 19.3 | 0.00 | 0.03 | 0.03 | 86 | 1012.6 |
| 20260507041510 | 20 | 34 | 4.8 | 16.1 | 0.00 | 0.03 | 0.03 | 86 | 1012.7 |
| 20260507041008 | 20 | 325 | 1.6 | 16.1 | 0.00 | 0.03 | 0.03 | 86 | 1012.7 |
| 20260507040506 | 21 | 347 | 4.8 | 16.1 | 0.00 | 0.03 | 0.03 | 86 | 1012.7 |
| 20260507040017 | 21 | 342 | 3.2 | 12.9 | 0.00 | 0.03 | 0.03 | 85 | 1012.9 |
| 20260507035507 | 21 | 93 | 4.8 | 19.3 | 0.00 | 0.03 | 0.03 | 85 | 1012.9 |
| 20260507035011 | 21 | 51 | 3.2 | 19.3 | 0.00 | 0.03 | 0.03 | 85 | 1012.9 |
| 20260507034544 | 21 | 341 | 3.2 | 16.1 | 0.00 | 0.03 | 0.03 | 85 | 1012.8 |
| 20260507034009 | 21 | 323 | 6.4 | 16.1 | 0.00 | 0.03 | 0.03 | 85 | 1012.7 |
| 20260507033507 | 21 | 302 | 6.4 | 17.7 | 0.00 | 0.03 | 0.03 | 85 | 1012.6 |
| 20260507033010 | 21 | 19 | 8.0 | 17.7 | 0.00 | 0.03 | 0.03 | 85 | 1012.6 |
| 20260507032507 | 21 | 349 | 6.4 | 16.1 | 0.00 | 0.03 | 0.03 | 85 | 1012.4 |
| 20260507032007 | 21 | 63 | 4.8 | 19.3 | 0.00 | 0.03 | 0.03 | 85 | 1012.2 |
| 20260507031520 | 21 | 16 | 6.4 | 19.3 | 0.00 | 0.03 | 0.03 | 86 | 1012.1 |
| 20260507031007 | 21 | 30 | 6.4 | 20.9 | 0.00 | 0.03 | 0.03 | 86 | 1012.1 |
| 20260507030511 | 21 | 265 | 3.2 | 20.9 | 0.00 | 0.03 | 0.03 | 85 | 1012.0 |
| 20260507030027 | 21 | 332 | 4.8 | 20.9 | 0.00 | 0.03 | 0.03 | 85 | 1011.9 |
| 20260507025505 | 22 | 38 | 4.8 | 16.1 | 0.00 | 0.03 | 0.03 | 85 | 1011.9 |
| 20260507025004 | 22 | 29 | 4.8 | 16.1 | 0.00 | 0.03 | 0.03 | 85 | 1011.7 |
| 20260507024526 | 22 | 309 | 3.2 | 16.1 | 0.00 | 0.03 | 0.03 | 86 | 1011.7 |
| 20260507024008 | 22 | 291 | 6.4 | 17.7 | 0.00 | 0.03 | 0.03 | 86 | 1011.7 |
| 20260507023512 | 22 | 43 | 4.8 | 17.7 | 0.00 | 0.03 | 0.03 | 86 | 1011.5 |
| 20260507023022 | 22 | 22 | 4.8 | 17.7 | 0.00 | 0.03 | 0.03 | 85 | 1011.4 |
| 20260507022508 | 22 | 321 | 6.4 | 17.7 | 0.00 | 0.03 | 0.03 | 85 | 1011.2 |
| 20260507022015 | 22 | 25 | 4.8 | 17.7 | 0.00 | 0.03 | 0.03 | 86 | 1011.1 |
| 20260507021508 | 22 | 295 | 4.8 | 17.7 | 0.00 | 0.03 | 0.03 | 85 | 1011.1 |
| 20260507021007 | 22 | 334 | 6.4 | 17.7 | 0.00 | 0.03 | 0.03 | 85 | 1010.9 |
| 20260507020507 | 22 | 26 | 4.8 | 17.7 | 0.00 | 0.03 | 0.03 | 85 | 1010.8 |
| 20260507020016 | 22 | 33 | 8.0 | 17.7 | 0.00 | 0.03 | 0.03 | 85 | 1010.8 |
| 20260507015513 | 22 | 15 | 4.8 | 14.5 | 0.00 | 0.03 | 0.03 | 85 | 1010.9 |
| 20260507015008 | 22 | 27 | 4.8 | 20.9 | 0.00 | 0.03 | 0.03 | 86 | 1010.9 |
| 20260507014536 | 22 | 9 | 6.4 | 20.9 | 0.00 | 0.03 | 0.03 | 86 | 1010.7 |
| 20260507014009 | 22 | 298 | 6.4 | 16.1 | 0.00 | 0.03 | 0.03 | 86 | 1010.6 |
| 20260507013504 | 22 | 339 | 3.2 | 14.5 | 0.00 | 0.03 | 0.03 | 87 | 1010.6 |
| 20260507013013 | 22 | 18 | 4.8 | 14.5 | 0.00 | 0.03 | 0.03 | 86 | 1010.4 |
| 20260507012509 | 22 | 28 | 4.8 | 16.1 | 0.00 | 0.03 | 0.03 | 87 | 1010.4 |
| 20260507012008 | 22 | 338 | 4.8 | 17.7 | 0.00 | 0.03 | 0.03 | 87 | 1010.3 |
| 20260507011535 | 23 | 344 | 4.8 | 24.1 | 0.00 | 0.03 | 0.03 | 87 | 1010.1 |
| 20260507011008 | 23 | 9 | 6.4 | 24.1 | 0.00 | 0.03 | 0.03 | 87 | 1010.1 |
| 20260507010510 | 23 | 20 | 6.4 | 22.5 | 0.03 | 0.03 | 0.03 | 87 | 1010.1 |
| 20260507010030 | 23 | 254 | 8.0 | 22.5 | 0.03 | 0.03 | 0.03 | 87 | 1010.0 |
| 20260507005504 | 23 | 88 | 4.8 | 16.1 | 0.03 | 0.03 | 0.03 | 88 | 1009.9 |
| 20260507005011 | 23 | 44 | 3.2 | 12.9 | 0.03 | 0.03 | 0.03 | 88 | 1009.9 |
| 20260507004513 | 23 | 9 | 3.2 | 12.9 | 0.03 | 0.03 | 0.03 | 88 | 1009.7 |
| 20260507004009 | 23 | 9 | 3.2 | 8.0 | 0.03 | 0.03 | 0.03 | 88 | 1009.5 |
| 20260507003509 | 23 | 319 | 3.2 | 11.3 | 0.03 | 0.03 | 0.03 | 88 | 1009.5 |
| 20260507003023 | 24 | 31 | 3.2 | 14.5 | 0.03 | 0.03 | 0.03 | 88 | 1009.4 |
| 20260507002512 | 24 | 288 | 4.8 | 14.5 | 0.03 | 0.03 | 0.03 | 88 | 1009.4 |
| 20260507002011 | 25 | 321 | 1.6 | 12.9 | 0.03 | 0.03 | 0.03 | 87 | 1009.2 |
| 20260507001510 | 25 | 34 | 3.2 | 12.9 | 0.03 | 0.03 | 0.03 | 86 | 1009.1 |
| 20260507001005 | 25 | 316 | 1.6 | 17.7 | 0.03 | 0.03 | 0.03 | 86 | 1009.0 |
| 20260507000508 | 25 | 282 | 3.2 | 17.7 | 0.00 | 0.00 | 0.00 | 85 | 1008.8 |
| 20260507000019 | 27 | 255 | 6.4 | 16.1 | 0.00 | 0.00 | 0.00 | 84 | 1008.8 |
| 20260506235509 | 28 | 9 | 0.0 | 9.7 | 0.00 | 0.00 | 0.00 | 87 | 1008.6 |
| 20260506235009 | 28 | 31 | 1.6 | 9.7 | 0.00 | 0.00 | 0.00 | 86 | 1008.5 |
| 20260506234524 | 29 | 17 | 1.6 | 6.4 | 0.00 | 0.00 | 0.00 | 85 | 1008.5 |
| 20260506234011 | 30 | 34 | 1.6 | 6.4 | 0.00 | 0.00 | 0.00 | 83 | 1008.5 |
| 20260506233507 | 30 | 319 | 0.0 | 4.8 | 0.00 | 0.00 | 0.00 | 81 | 1008.5 |
| 20260506233014 | 30 | 247 | 0.0 | 6.4 | 0.00 | 0.00 | 0.00 | 81 | 1008.4 |
| 20260506232514 | 30 | 9 | 1.6 | 6.4 | 0.00 | 0.00 | 0.00 | 81 | 1008.3 |
| 20260506232008 | 30 | 183 | 1.6 | 6.4 | 0.00 | 0.00 | 0.00 | 81 | 1008.3 |
| 20260506231525 | 30 | 51 | 0.0 | 6.4 | 0.00 | 0.00 | 0.00 | 80 | 1008.2 |
| 20260506231014 | 30 | 236 | 0.0 | 6.4 | 0.00 | 0.00 | 0.00 | 80 | 1008.0 |
| 20260506230509 | 30 | 168 | 1.6 | 6.4 | 0.00 | 0.00 | 0.00 | 80 | 1008.1 |
| 20260506230031 | 30 | 51 | 0.0 | 8.0 | 0.00 | 0.00 | 0.00 | 80 | 1008.1 |
| 20260506225506 | 30 | 153 | 1.6 | 8.0 | 0.00 | 0.00 | 0.00 | 80 | 1008.1 |
| 20260506225006 | 30 | 294 | 1.6 | 9.7 | 0.00 | 0.00 | 0.00 | 80 | 1008.1 |
| 20260506224517 | 30 | 157 | 3.2 | 9.7 | 0.00 | 0.00 | 0.00 | 79 | 1008.1 |
| 20260506224007 | 31 | 61 | 1.6 | 9.7 | 0.00 | 0.00 | 0.00 | 77 | 1008.1 |
| 20260506223509 | 31 | 309 | 3.2 | 9.7 | 0.00 | 0.00 | 0.00 | 77 | 1008.1 |
| 20260506223026 | 31 | 184 | 1.6 | 9.7 | 0.00 | 0.00 | 0.00 | 77 | 1008.1 |
| 20260506222509 | 31 | 194 | 4.8 | 9.7 | 0.00 | 0.00 | 0.00 | 77 | 1008.1 |
| 20260506222015 | 31 | 165 | 3.2 | 9.7 | 0.00 | 0.00 | 0.00 | 77 | 1008.1 |
| 20260506221528 | 31 | 255 | 3.2 | 8.0 | 0.00 | 0.00 | 0.00 | 77 | 1008.0 |
| 20260506221015 | 31 | 186 | 1.6 | 8.0 | 0.00 | 0.00 | 0.00 | 78 | 1008.0 |
| 20260506220510 | 31 | 273 | 3.2 | 9.7 | 0.00 | 0.00 | 0.00 | 77 | 1008.0 |
| 20260506220032 | 32 | 196 | 3.2 | 11.3 | 0.00 | 0.00 | 0.00 | 78 | 1007.8 |
| 20260506215510 | 32 | 267 | 3.2 | 11.3 | 0.00 | 0.00 | 0.00 | 79 | 1007.8 |
| 20260506215010 | 31 | 217 | 4.8 | 14.5 | 0.00 | 0.00 | 0.00 | 80 | 1007.8 |
| 20260506214515 | 31 | 273 | 1.6 | 14.5 | 0.00 | 0.00 | 0.00 | 81 | 1008.0 |
| 20260506214002 | 31 | 166 | 3.2 | 14.5 | 0.00 | 0.00 | 0.00 | 79 | 1008.0 |
| 20260506213506 | 31 | 146 | 3.2 | 11.3 | 0.00 | 0.00 | 0.00 | 79 | 1008.1 |
| 20260506213016 | 30 | 250 | 1.6 | 11.3 | 0.00 | 0.00 | 0.00 | 80 | 1008.1 |
| 20260506212506 | 31 | 259 | 3.2 | 14.5 | 0.00 | 0.00 | 0.00 | 80 | 1007.9 |
| 20260506212010 | 31 | 325 | 6.4 | 14.5 | 0.00 | 0.00 | 0.00 | 80 | 1008.0 |
| 20260506211524 | 31 | 237 | 3.2 | 16.1 | 0.00 | 0.00 | 0.00 | 80 | 1008.0 |
| 20260506211010 | 31 | 186 | 4.8 | 16.1 | 0.00 | 0.00 | 0.00 | 81 | 1008.1 |
| 20260506210507 | 31 | 236 | 3.2 | 17.7 | 0.00 | 0.00 | 0.00 | 81 | 1008.2 |
| 20260506210013 | 31 | 193 | 3.2 | 19.3 | 0.00 | 0.00 | 0.00 | 80 | 1008.2 |
| 20260506205508 | 31 | 173 | 6.4 | 19.3 | 0.00 | 0.00 | 0.00 | 78 | 1008.3 |
| 20260506205006 | 31 | 178 | 8.0 | 17.7 | 0.00 | 0.00 | 0.00 | 79 | 1008.4 |
| 20260506204521 | 31 | 182 | 9.7 | 17.7 | 0.00 | 0.00 | 0.00 | 80 | 1008.4 |
| 20260506204010 | 31 | 165 | 3.2 | 12.9 | 0.00 | 0.00 | 0.00 | 81 | 1008.4 |
| 20260506203517 | 30 | 229 | 3.2 | 12.9 | 0.00 | 0.00 | 0.00 | 81 | 1008.5 |
| 20260506203027 | 30 | 227 | 3.2 | 19.3 | 0.00 | 0.00 | 0.00 | 81 | 1008.5 |
| 20260506202503 | 30 | 159 | 4.8 | 19.3 | 0.00 | 0.00 | 0.00 | 82 | 1008.6 |
| 20260506202007 | 30 | 159 | 8.0 | 17.7 | 0.00 | 0.00 | 0.00 | 82 | 1008.6 |
| 20260506201512 | 30 | 213 | 8.0 | 17.7 | 0.00 | 0.00 | 0.00 | 82 | 1008.7 |
| 20260506201006 | 30 | 167 | 3.2 | 19.3 | 0.00 | 0.00 | 0.00 | 83 | 1008.7 |
| 20260506200509 | 30 | 194 | 6.4 | 19.3 | 0.00 | 0.00 | 0.00 | 81 | 1008.7 |
| 20260506200021 | 30 | 184 | 4.8 | 17.7 | 0.00 | 0.00 | 0.00 | 80 | 1008.7 |
| 20260506195510 | 30 | 157 | 8.0 | 16.1 | 0.00 | 0.00 | 0.00 | 79 | 1008.7 |
| 20260506195010 | 31 | 186 | 6.4 | 14.5 | 0.00 | 0.00 | 0.00 | 78 | 1008.8 |
| 20260506194544 | 31 | 205 | 6.4 | 19.3 | 0.00 | 0.00 | 0.00 | 79 | 1008.7 |
| 20260506194006 | 31 | 137 | 4.8 | 19.3 | 0.00 | 0.00 | 0.00 | 79 | 1008.8 |
| 20260506193505 | 31 | 193 | 6.4 | 17.7 | 0.00 | 0.00 | 0.00 | 80 | 1008.8 |
| 20260506193015 | 31 | 171 | 6.4 | 16.1 | 0.00 | 0.00 | 0.00 | 80 | 1008.9 |
| 20260506192507 | 31 | 142 | 6.4 | 16.1 | 0.00 | 0.00 | 0.00 | 79 | 1008.9 |
| 20260506192013 | 31 | 173 | 3.2 | 12.9 | 0.00 | 0.00 | 0.00 | 82 | 1008.9 |
| 20260506191522 | 30 | 202 | 4.8 | 19.3 | 0.00 | 0.00 | 0.00 | 83 | 1009.1 |
| 20260506191008 | 30 | 171 | 6.4 | 19.3 | 0.00 | 0.00 | 0.00 | 81 | 1009.1 |
| 20260506190505 | 30 | 173 | 4.8 | 17.7 | 0.00 | 0.00 | 0.00 | 82 | 1009.1 |
| 20260506190008 | 30 | 139 | 6.4 | 17.7 | 0.00 | 0.00 | 0.00 | 81 | 1009.1 |
| 20260506185506 | 30 | 178 | 8.0 | 17.7 | 0.00 | 0.00 | 0.00 | 83 | 1009.2 |
| 20260506185011 | 30 | 178 | 4.8 | 19.3 | 0.00 | 0.00 | 0.00 | 84 | 1009.3 |
| 20260506184525 | 30 | 139 | 3.2 | 19.3 | 0.00 | 0.00 | 0.00 | 83 | 1009.3 |
| 20260506184009 | 29 | 202 | 4.8 | 11.3 | 0.00 | 0.00 | 0.00 | 82 | 1009.4 |
| 20260506183511 | 30 | 161 | 3.2 | 16.1 | 0.00 | 0.00 | 0.00 | 82 | 1009.4 |
| 20260506183025 | 30 | 178 | 3.2 | 16.1 | 0.00 | 0.00 | 0.00 | 82 | 1009.4 |
| 20260506182503 | 30 | 161 | 3.2 | 12.9 | 0.00 | 0.00 | 0.00 | 83 | 1009.5 |
| 20260506182005 | 30 | 153 | 1.6 | 12.9 | 0.00 | 0.00 | 0.00 | 83 | 1009.6 |
| 20260506181514 | 30 | 159 | 6.4 | 12.9 | 0.00 | 0.00 | 0.00 | 84 | 1009.8 |
| 20260506181007 | 29 | 170 | 3.2 | 8.0 | 0.00 | 0.00 | 0.00 | 84 | 1009.8 |
| 20260506180507 | 29 | 196 | 3.2 | 11.3 | 0.00 | 0.00 | 0.00 | 85 | 1010.0 |
| 20260506180022 | 29 | 242 | 3.2 | 11.3 | 0.00 | 0.00 | 0.00 | 84 | 1010.1 |
| 20260506175508 | 29 | 51 | 3.2 | 8.0 | 0.00 | 0.00 | 0.00 | 85 | 1010.2 |
| 20260506175010 | 28 | 124 | 1.6 | 12.9 | 0.00 | 0.00 | 0.00 | 85 | 1010.4 |
| 20260506174509 | 28 | 247 | 1.6 | 12.9 | 0.00 | 0.00 | 0.00 | 85 | 1010.4 |
| 20260506174010 | 28 | 157 | 1.6 | 8.0 | 0.00 | 0.00 | 0.00 | 86 | 1010.5 |
| 20260506173505 | 28 | 247 | 3.2 | 8.0 | 0.00 | 0.00 | 0.00 | 86 | 1010.6 |
| 20260506173018 | 28 | 137 | 1.6 | 9.7 | 0.00 | 0.00 | 0.00 | 86 | 1010.8 |
| 20260506172507 | 28 | 161 | 3.2 | 9.7 | 0.00 | 0.00 | 0.00 | 86 | 1010.7 |
| 20260506172008 | 28 | 153 | 3.2 | 11.3 | 0.00 | 0.00 | 0.00 | 86 | 1010.8 |
| 20260506171525 | 28 | 190 | 1.6 | 11.3 | 0.00 | 0.00 | 0.00 | 85 | 1010.7 |
| 20260506171009 | 28 | 157 | 1.6 | 9.7 | 0.00 | 0.00 | 0.00 | 86 | 1010.9 |
| 20260506170507 | 28 | 193 | 1.6 | 9.7 | 0.00 | 0.00 | 0.00 | 86 | 1010.8 |
| 20260506170011 | 28 | 168 | 4.8 | 14.5 | 0.00 | 0.00 | 0.00 | 86 | 1010.9 |
| 20260506165510 | 28 | 165 | 3.2 | 14.5 | 0.00 | 0.00 | 0.00 | 87 | 1010.8 |
| 20260506165013 | 28 | 144 | 6.4 | 12.9 | 0.00 | 0.00 | 0.00 | 88 | 1010.9 |
| 20260506164524 | 27 | 148 | 1.6 | 9.7 | 0.00 | 0.00 | 0.00 | 88 | 1010.8 |
| 20260506164011 | 27 | 178 | 3.2 | 11.3 | 0.00 | 0.00 | 0.00 | 88 | 1010.7 |
| 20260506163510 | 27 | 146 | 4.8 | 16.1 | 0.00 | 0.00 | 0.00 | 88 | 1010.7 |
| 20260506163027 | 27 | 175 | 6.4 | 16.1 | 0.00 | 0.00 | 0.00 | 87 | 1010.8 |
| 20260506162507 | 27 | 155 | 4.8 | 19.3 | 0.00 | 0.00 | 0.00 | 87 | 1010.6 |
| 20260506162010 | 27 | 193 | 4.8 | 19.3 | 0.00 | 0.00 | 0.00 | 87 | 1010.6 |
| 20260506161516 | 27 | 199 | 8.0 | 14.5 | 0.00 | 0.00 | 0.00 | 87 | 1010.4 |
| 20260506161011 | 27 | 198 | 3.2 | 14.5 | 0.00 | 0.00 | 0.00 | 87 | 1010.4 |
| 20260506160507 | 27 | 157 | 4.8 | 14.5 | 0.00 | 0.00 | 0.00 | 87 | 1010.4 |